Location: Maccacari
(45.1333°N, 11.1333°E)
Time: 11:47:54
(UTC+00:00)

Vanguard 2 - Pass Details

Date: 24 January 2021
Orbit: 552 x 2938 km, 32.9° (Epoch: 24 February)

Event Time Altitude Azimuth Distance (km) Brightness Sun altitude
Rises 18:49:32 0° 250° (WSW) 2,925 11.6 -27.6°
Reaches altitude 10° 18:52:07 10° 232° (SW) 2,194 10.5 -28.1°
Maximum altitude 18:55:45 20° 185° (S) 1,910 9.5 -28.7°
Enters shadow 18:56:17 19° 178° (S) 1,967 9.5 -28.8°
Drops below altitude 10° 19:00:29 10° 142° (SE) 2,981 - -29.6°
Sets 19:04:48 0° 127° (SE) 4,407 - -30.3°
